Weather History for Driggs, ID

Change the Weather History Date:

Sunday, February 19, 2012

  Actual Average (KRXE) Record (KRXE)
Temperature  
Mean Temperature 15 °F 23 °F  
Max Temperature 23 °F 33 °F 40 °F (2011)
Min Temperature 7 °F 13 °F -2 °F (2006)
Degree Days  
Heating Degree Days 50 42  
Month to date heating degree days 836  
Since 1 July heating degree days 5613  
Cooling Degree Days 0 0  
Month to date cooling degree days 0  
Year to date cooling degree days 0  
Moisture  
Dew Point 16 °F    
Average Humidity 87    
Maximum Humidity 93    
Minimum Humidity 65    
Precipitation  
Precipitation 0.00 in 0.03 in 0.44 in (1989)
Month to date precipitation 0.56  
Year to date precipitation 1.30  
Sea Level Pressure  
Sea Level Pressure 29.86 in    
Wind  
Wind Speed 4 mph (East)    
Max Wind Speed 13 mph    
Max Gust Speed -    
Visibility 4 miles    
Events Fog , Snow    
T = Trace of Precipitation, MM = Missing Value Source: NWS Daily Summary

Daily Weather History Graph

Daily Weather History Graph

Search for Another Location

Airport:

Trip Planner

Search our weather history database for the weather conditions in past years. The results will help you decide how hot, cold, wet, or windy it might be!

Date:

Astronomy

Feb. 19, 2012 Rise Set
Actual Time 7:17 AM MST 5:59 PM MST
Civil Twilight 6:48 AM MST 6:28 PM MST
Nautical Twilight 6:15 AM MST 7:02 PM MST
Astronomical Twilight 5:41 AM MST 7:35 PM MST
Moon 5:44 AM MST 4:02 PM MST
Length of Visible Light 11h 40m
Length of Day
10h 41m
Waning Crescent, 5% of the Moon is Illuminated
Feb 19
Waning Crescent
Feb 21
New
Feb 29
First Quarter
Mar 8
Full
Mar 14
Last Quarter

Hourly Weather History & Observations

Time (MST) Temp. Windchill Dew Point Humidity Pressure Visibility Wind Dir Wind Speed Gust Speed Precip Events Conditions
12:06 AM 21.2 °F - 19.4 °F 93% 29.88 in 1.5 mi Calm Calm - 0.00 in Snow Light Snow
12:10 AM 21.2 °F - 19.4 °F 93% 29.88 in 2.0 mi Calm Calm - 0.00 in Snow Light Snow
12:18 AM 21.2 °F 16.4 °F 19.4 °F 93% 29.87 in 1.5 mi ESE 3.5 mph - 0.00 in Snow Light Snow
12:20 AM 21.2 °F 16.4 °F 19.4 °F 93% 29.87 in 1.0 mi ESE 3.5 mph - 0.00 in Snow Light Snow
12:29 AM 21.2 °F - 19.4 °F 93% 29.87 in 0.8 mi Calm Calm - 0.00 in Snow Light Snow
12:39 AM 21.2 °F 16.4 °F 19.4 °F 93% 29.87 in 1.0 mi South 3.5 mph - 0.00 in Snow Light Snow
12:56 AM 21.0 °F 16.2 °F 19.0 °F 92% 29.88 in 1.5 mi SSE 3.5 mph - 0.00 in Snow Light Snow
1:04 AM 21.2 °F 16.4 °F 19.4 °F 93% 29.86 in 1.2 mi SE 3.5 mph - 0.00 in Snow Light Snow
1:19 AM 21.2 °F 16.4 °F 19.4 °F 93% 29.86 in 1.5 mi ESE 3.5 mph - 0.00 in Snow Light Snow
1:39 AM 21.2 °F 13.6 °F 19.4 °F 93% 29.85 in 2.5 mi SSE 5.8 mph - 0.00 in Snow Light Snow
1:48 AM 21.2 °F 12.6 °F 19.4 °F 93% 29.85 in 2.5 mi SSE 6.9 mph - 0.00 in Snow Light Snow
1:56 AM 21.0 °F 11.4 °F 19.0 °F 92% 29.86 in 2.5 mi SSE 8.1 mph - 0.00 in Snow Light Snow
2:04 AM 21.2 °F 12.6 °F 17.6 °F 86% 29.84 in 2.5 mi SSE 6.9 mph - 0.00 in Snow Light Snow
2:24 AM 19.4 °F 10.4 °F 17.6 °F 93% 29.84 in 4.0 mi SSE 6.9 mph - 0.00 in Snow Light Snow
2:38 AM 19.4 °F 12.8 °F 17.6 °F 93% 29.84 in 7.0 mi South 4.6 mph - 0.00 in   Overcast
2:56 AM 20.1 °F - 17.1 °F 88% 29.87 in 10.0 mi Calm Calm - 0.00 in   Overcast
3:56 AM 19.0 °F 13.9 °F 17.1 °F 92% 29.86 in 4.0 mi SSE 3.5 mph - 0.00 in Snow Light Snow
4:33 AM 19.4 °F 12.8 °F 17.6 °F 93% 29.82 in 4.0 mi SSW 4.6 mph - 0.00 in Snow Light Snow
4:39 AM 19.4 °F 12.8 °F 17.6 °F 93% 29.82 in 2.5 mi South 4.6 mph - 0.00 in Snow Light Snow
4:48 AM 19.4 °F 14.3 °F 17.6 °F 93% 29.82 in 2.5 mi South 3.5 mph - 0.00 in Snow Light Snow
4:56 AM 20.1 °F 12.3 °F 17.1 °F 88% 29.85 in 2.0 mi South 5.8 mph - 0.00 in Snow Light Snow
5:07 AM 19.4 °F 12.8 °F 17.6 °F 93% 29.82 in 2.0 mi South 4.6 mph - 0.00 in Snow Light Snow
5:33 AM 19.4 °F - 17.6 °F 93% 29.82 in 3.0 mi Calm Calm - 0.00 in Snow Light Snow
5:56 AM 19.0 °F - 17.1 °F 92% 29.86 in 2.5 mi Calm Calm - 0.00 in Snow Light Snow
6:16 AM 19.4 °F - 17.6 °F 93% 29.81 in 1.8 mi Calm Calm - 0.00 in Snow Light Snow
6:23 AM 19.4 °F - 17.6 °F 93% 29.81 in 2.0 mi Calm Calm - 0.00 in Snow Light Snow
6:56 AM 19.0 °F - 17.1 °F 92% 29.85 in 3.0 mi Calm Calm - 0.00 in Snow Light Snow
7:04 AM 19.4 °F - 17.6 °F 93% 29.81 in 2.0 mi Calm Calm - 0.00 in Snow Light Snow
7:09 AM 19.4 °F - 15.8 °F 86% 29.81 in 1.5 mi Calm Calm - 0.00 in Snow Light Snow
7:18 AM 19.4 °F 14.3 °F 17.6 °F 93% 29.81 in 1.0 mi NE 3.5 mph - 0.00 in Snow Light Snow
7:56 AM 19.0 °F 9.0 °F 16.2 °F 89% 29.86 in 0.8 mi NE 8.1 mph - 0.00 in Snow Light Snow
8:13 AM 19.4 °F 10.4 °F 15.8 °F 86% 29.82 in 0.8 mi NE 6.9 mph - 0.00 in Snow Light Snow
8:19 AM 19.4 °F 11.5 °F 15.8 °F 86% 29.82 in 0.5 mi NE 5.8 mph - 0.00 in Fog , Snow Light Snow
8:22 AM 19.4 °F 11.5 °F 15.8 °F 86% 29.82 in 0.8 mi NE 5.8 mph - 0.00 in Snow Light Snow
8:29 AM 19.4 °F 12.8 °F 15.8 °F 86% 29.82 in 1.0 mi NNE 4.6 mph - 0.00 in Snow Light Snow
8:34 AM 19.4 °F 12.8 °F 15.8 °F 86% 29.82 in 1.5 mi NNE 4.6 mph - 0.00 in Snow Light Snow
8:56 AM 20.1 °F 12.3 °F 16.2 °F 85% 29.86 in 0.8 mi North 5.8 mph - 0.00 in Snow Light Snow
9:07 AM 19.4 °F 9.5 °F 15.8 °F 86% 29.82 in 1.0 mi NNE 8.1 mph - 0.00 in Snow Light Snow
9:13 AM 19.4 °F 8.6 °F 15.8 °F 86% 29.82 in 1.2 mi NNE 9.2 mph - 0.00 in Snow Light Snow
9:17 AM 19.4 °F 9.5 °F 15.8 °F 86% 29.82 in 1.2 mi NNE 8.1 mph - 0.00 in Snow Light Snow
9:24 AM 19.4 °F 9.5 °F 15.8 °F 86% 29.82 in 0.8 mi NNE 8.1 mph - 0.00 in Snow Light Snow
9:27 AM 19.4 °F 8.6 °F 15.8 °F 86% 29.82 in 0.5 mi North 9.2 mph - 0.00 in Fog , Snow Light Snow
9:37 AM 19.4 °F 8.6 °F 15.8 °F 86% 29.82 in 0.5 mi North 9.2 mph - 0.00 in Fog , Snow Light Snow
9:41 AM 19.4 °F 7.9 °F 15.8 °F 86% 29.83 in 0.8 mi North 10.4 mph - 0.00 in Snow Light Snow
9:46 AM 19.4 °F 7.9 °F 15.8 °F 86% 29.82 in 1.0 mi North 10.4 mph - 0.00 in Snow Light Snow
9:56 AM 19.0 °F 6.1 °F 16.2 °F 89% 29.88 in 2.0 mi North 12.7 mph - 0.00 in Snow Light Snow
10:04 AM 17.6 °F 5.0 °F 15.8 °F 93% 29.83 in 8.0 mi North 11.5 mph - 0.00 in Snow Light Snow
10:44 AM 17.6 °F 7.3 °F 14.0 °F 86% 29.83 in 10.0 mi NNE 8.1 mph - 0.00 in   Mostly Cloudy
11:56 AM 22.1 °F 15.9 °F 14.0 °F 71% 29.88 in 10.0 mi North 4.6 mph - N/A   Clear
12:56 PM 23.0 °F 15.8 °F 15.1 °F 72% 29.86 in 10.0 mi North 5.8 mph - N/A   Clear
1:56 PM 23.0 °F 14.7 °F 15.1 °F 72% 29.86 in 7.0 mi North 6.9 mph - N/A   Clear
2:56 PM 22.1 °F 15.9 °F 12.0 °F 65% 29.88 in 8.0 mi NE 4.6 mph - N/A   Clear
3:56 PM 17.1 °F 6.6 °F 8.1 °F 68% 29.92 in 7.0 mi NE 8.1 mph - N/A   Clear
4:56 PM 16.2 °F 4.7 °F 7.2 °F 68% 29.92 in 8.0 mi ENE 9.2 mph - N/A   Mostly Cloudy
5:56 PM 7.2 °F -4.3 °F 1.0 °F 76% 29.98 in 10.0 mi ENE 6.9 mph - N/A   Mostly Cloudy
6:56 PM 13.1 °F 4.0 °F 8.1 °F 80% 29.96 in 10.0 mi SSE 5.8 mph - N/A   Overcast
7:56 PM 13.1 °F 5.4 °F 8.1 °F 80% 29.96 in 10.0 mi SE 4.6 mph - N/A   Overcast
8:56 PM 13.1 °F 4.0 °F 8.1 °F 80% 29.97 in 10.0 mi ESE 5.8 mph - N/A   Overcast
9:56 PM 10.0 °F 1.8 °F 5.0 °F 80% 30.00 in 10.0 mi East 4.6 mph - N/A   Overcast
10:56 PM 12.0 °F 2.7 °F 7.2 °F 81% 30.01 in 10.0 mi East 5.8 mph - N/A   Overcast
11:56 PM 16.2 °F 9.0 °F 9.1 °F 74% 29.98 in 10.0 mi SE 4.6 mph - N/A   Overcast